Time,TemperatureF,DewpointF,PressureIn,WindDirection,WindDirectionDegrees,WindSpeedMPH,WindSpeedGustMPH,Humidity,HourlyPrecipIn,Conditions,Clouds,dailyrainin,SoftwareType,DateUTC
2013-01-25 00:03:00,27.0,13.0,30.33,ENE,57,0.0,0.0,55,0.00,,,0.00,,2013-01-25 05:03:00,
2013-01-25 00:12:00,27.0,13.0,30.32,ENE,57,0.0,0.0,56,0.00,,,0.00,,2013-01-25 05:12:00,
2013-01-25 00:22:00,27.0,13.0,30.32,ENE,57,0.0,0.0,56,0.00,,,0.00,,2013-01-25 05:22:00,
2013-01-25 00:32:00,27.0,13.0,30.33,ENE,57,0.0,1.0,56,0.00,,,0.00,,2013-01-25 05:32:00,
2013-01-25 00:43:00,27.0,13.0,30.33,ENE,57,0.0,1.0,56,0.00,,,0.00,,2013-01-25 05:43:00,
2013-01-25 00:52:00,27.0,14.0,30.34,ENE,57,0.0,0.0,57,0.00,,,0.00,,2013-01-25 05:52:00,
2013-01-25 01:02:00,28.0,14.0,30.34,ENE,57,0.0,0.0,55,0.00,,,0.00,,2013-01-25 06:02:00,
2013-01-25 01:11:00,28.0,14.0,30.34,ENE,57,0.0,0.0,55,0.00,,,0.00,,2013-01-25 06:11:00,
2013-01-25 01:21:00,28.0,12.0,30.33,ENE,57,0.0,0.0,50,0.00,,,0.00,,2013-01-25 06:21:00,
2013-01-25 01:32:00,29.0,12.0,30.33,ENE,57,0.0,0.0,48,0.00,,,0.00,,2013-01-25 06:32:00,
2013-01-25 01:42:00,29.0,11.0,30.32,ENE,57,0.0,0.0,47,0.00,,,0.00,,2013-01-25 06:42:00,
2013-01-25 01:52:00,29.0,11.0,30.32,ENE,57,0.0,0.0,47,0.00,,,0.00,,2013-01-25 06:52:00,
2013-01-25 02:02:00,29.0,11.0,30.32,ENE,57,0.0,0.0,46,0.00,,,0.00,,2013-01-25 07:02:00,
2013-01-25 02:11:00,29.0,9.0,30.31,ENE,57,0.0,0.0,43,0.00,,,0.00,,2013-01-25 07:11:00,
2013-01-25 02:22:00,29.0,9.0,30.31,ENE,57,0.0,0.0,43,0.00,,,0.00,,2013-01-25 07:22:00,
2013-01-25 02:32:00,29.0,9.0,30.32,NE,39,0.0,2.0,43,0.00,,,0.00,,2013-01-25 07:32:00,
2013-01-25 02:42:00,29.0,9.0,30.32,NE,39,0.0,2.0,43,0.00,,,0.00,,2013-01-25 07:42:00,
2013-01-25 02:52:00,29.0,10.0,30.31,NE,39,0.0,0.0,44,0.00,,,0.00,,2013-01-25 07:52:00,
2013-01-25 03:02:00,29.0,10.0,30.30,NE,39,0.0,1.0,45,0.00,,,0.00,,2013-01-25 08:02:00,
2013-01-25 03:11:00,30.0,11.0,30.30,NE,38,0.0,0.0,44,0.00,,,0.00,,2013-01-25 08:11:00,
2013-01-25 03:21:00,30.0,11.0,30.30,NE,38,0.0,0.0,44,0.00,,,0.00,,2013-01-25 08:21:00,
2013-01-25 03:32:00,30.0,12.0,30.30,NE,38,0.0,0.0,46,0.00,,,0.00,,2013-01-25 08:32:00,
2013-01-25 03:41:00,30.0,12.0,30.30,NE,38,0.0,0.0,46,0.00,,,0.00,,2013-01-25 08:41:00,
2013-01-25 03:52:00,30.0,12.0,30.27,NE,38,0.0,0.0,46,0.00,,,0.00,,2013-01-25 08:52:00,
2013-01-25 04:02:00,30.0,13.0,30.26,NE,38,0.0,1.0,48,0.00,,,0.00,,2013-01-25 09:02:00,
2013-01-25 04:11:00,30.0,13.0,30.26,NE,38,0.0,1.0,48,0.00,,,0.00,,2013-01-25 09:11:00,
2013-01-25 04:21:00,30.0,13.0,30.26,WSW,252,0.0,2.0,48,0.00,,,0.00,,2013-01-25 09:21:00,
2013-01-25 04:32:00,31.0,14.0,30.25,WSW,252,0.0,1.0,49,0.00,,,0.00,,2013-01-25 09:32:00,
2013-01-25 04:42:00,31.0,14.0,30.25,WSW,252,0.0,1.0,49,0.00,,,0.00,,2013-01-25 09:42:00,
2013-01-25 04:52:00,31.0,14.0,30.25,WSW,252,0.0,1.0,49,0.00,,,0.00,,2013-01-25 09:52:00,
2013-01-25 05:02:00,31.0,14.0,30.24,WSW,252,0.0,2.0,49,0.00,,,0.00,,2013-01-25 10:02:00,
2013-01-25 05:12:00,31.0,17.0,30.23,WSW,245,0.0,2.0,56,0.00,,,0.00,,2013-01-25 10:12:00,
2013-01-25 05:21:00,31.0,17.0,30.23,WSW,245,0.0,2.0,56,0.00,,,0.00,,2013-01-25 10:21:00,
2013-01-25 05:32:00,31.0,21.0,30.23,WSW,245,0.0,0.0,66,0.00,,,0.00,,2013-01-25 10:32:00,
2013-01-25 05:42:00,31.0,21.0,30.23,WSW,245,0.0,0.0,66,0.00,,,0.00,,2013-01-25 10:42:00,
2013-01-25 05:52:00,32.0,23.0,30.22,WSW,245,0.0,1.0,69,0.00,,,0.00,,2013-01-25 10:52:00,
2013-01-25 06:02:00,32.0,22.0,30.24,WSW,245,0.0,0.0,66,0.00,,,0.00,,2013-01-25 11:02:00,
2013-01-25 06:11:00,32.0,22.0,30.24,WSW,245,0.0,0.0,66,0.00,,,0.00,,2013-01-25 11:11:00,
2013-01-25 06:22:00,32.0,21.0,30.23,WSW,245,0.0,1.0,63,0.00,,,0.00,,2013-01-25 11:22:00,
2013-01-25 06:32:00,32.0,25.0,30.24,WSW,245,0.0,0.0,76,0.00,,,0.00,,2013-01-25 11:32:00,
2013-01-25 06:42:00,32.0,25.0,30.24,WSW,245,0.0,0.0,76,0.00,,,0.00,,2013-01-25 11:42:00,
2013-01-25 06:52:00,32.0,25.0,30.22,WSW,245,0.0,1.0,76,0.00,,,0.00,,2013-01-25 11:52:00,
2013-01-25 07:02:00,32.0,24.0,30.22,SW,235,0.0,1.0,71,0.00,,,0.00,,2013-01-25 12:02:00,
2013-01-25 07:12:00,32.0,24.0,30.22,SW,235,0.0,1.0,71,0.00,,,0.00,,2013-01-25 12:12:00,
2013-01-25 07:22:00,32.0,23.0,30.22,SW,235,0.0,1.0,70,0.00,,,0.00,,2013-01-25 12:22:00,
2013-01-25 07:32:00,32.0,25.0,30.22,SSW,194,0.0,3.0,75,0.01,,,0.01,,2013-01-25 12:32:00,
2013-01-25 07:42:00,32.0,25.0,30.22,SSW,194,0.0,3.0,75,0.01,,,0.01,,2013-01-25 12:42:00,
2013-01-25 07:53:00,32.0,25.0,30.22,SSW,194,0.0,1.0,76,0.01,,,0.01,,2013-01-25 12:53:00,
2013-01-25 08:02:00,32.0,25.0,30.22,South,188,0.0,2.0,74,0.01,,,0.01,,2013-01-25 13:02:00,
2013-01-25 08:12:00,32.0,25.0,30.22,South,188,0.0,2.0,74,0.01,,,0.01,,2013-01-25 13:12:00,
2013-01-25 08:22:00,32.0,24.0,30.22,South,187,0.0,2.0,72,0.01,,,0.01,,2013-01-25 13:22:00,
2013-01-25 08:32:00,32.0,23.0,30.22,WNW,296,0.0,3.0,69,0.00,,,0.01,,2013-01-25 13:32:00,
2013-01-25 08:42:00,32.0,23.0,30.22,WNW,296,0.0,3.0,69,0.00,,,0.01,,2013-01-25 13:42:00,
2013-01-25 08:53:00,33.0,23.0,30.22,South,190,1.0,3.0,67,0.00,,,0.01,,2013-01-25 13:53:00,
2013-01-25 09:03:00,33.0,23.0,30.21,WSW,254,0.0,3.0,66,0.00,,,0.01,,2013-01-25 14:03:00,
2013-01-25 09:12:00,33.0,23.0,30.21,WSW,254,0.0,3.0,66,0.00,,,0.01,,2013-01-25 14:12:00,
2013-01-25 09:23:00,32.0,23.0,30.20,South,184,1.0,3.0,68,0.00,,,0.01,,2013-01-25 14:23:00,
2013-01-25 09:33:00,33.0,25.0,30.19,SSW,196,0.0,3.0,72,0.00,,,0.01,,2013-01-25 14:33:00,
2013-01-25 09:42:00,33.0,25.0,30.19,SSW,196,0.0,3.0,72,0.00,,,0.01,,2013-01-25 14:42:00,
2013-01-25 09:53:00,33.0,25.0,30.18,SE,144,1.0,5.0,71,0.00,,,0.01,,2013-01-25 14:53:00,
2013-01-25 10:02:00,33.0,25.0,30.17,South,170,1.0,4.0,71,0.00,,,0.01,,2013-01-25 15:02:00,
2013-01-25 10:12:00,33.0,25.0,30.17,South,170,1.0,4.0,71,0.00,,,0.01,,2013-01-25 15:12:00,
2013-01-25 10:22:00,33.0,24.0,30.18,WSW,246,0.0,4.0,68,0.00,,,0.01,,2013-01-25 15:22:00,
2013-01-25 10:32:00,34.0,25.0,30.17,South,176,0.0,4.0,69,0.00,,,0.01,,2013-01-25 15:32:00,
2013-01-25 10:42:00,34.0,25.0,30.17,South,176,0.0,4.0,69,0.00,,,0.01,,2013-01-25 15:42:00,
2013-01-25 10:53:00,34.0,25.0,30.18,SSW,199,1.0,5.0,68,0.00,,,0.01,,2013-01-25 15:53:00,
2013-01-25 11:03:00,34.0,24.0,30.17,South,184,1.0,6.0,67,0.00,,,0.01,,2013-01-25 16:03:00,
2013-01-25 11:12:00,34.0,24.0,30.17,South,184,1.0,6.0,67,0.00,,,0.01,,2013-01-25 16:12:00,
2013-01-25 11:23:00,34.0,25.0,30.16,SSW,212,1.0,7.0,68,0.00,,,0.01,,2013-01-25 16:23:00,
2013-01-25 11:33:00,34.0,25.0,30.16,SSW,204,2.0,7.0,69,0.00,,,0.01,,2013-01-25 16:33:00,
2013-01-25 11:43:00,34.0,25.0,30.16,SSW,204,2.0,7.0,69,0.00,,,0.01,,2013-01-25 16:43:00,
2013-01-25 11:53:00,34.0,26.0,30.16,SSW,209,2.0,7.0,72,0.00,,,0.01,,2013-01-25 16:53:00,
2013-01-25 12:02:00,33.0,27.0,30.16,SSW,193,2.0,9.0,77,0.00,,,0.01,,2013-01-25 17:02:00,
2013-01-25 12:12:00,33.0,27.0,30.16,SSW,193,2.0,9.0,77,0.00,,,0.01,,2013-01-25 17:12:00,
2013-01-25 12:22:00,33.0,28.0,30.15,SE,142,1.0,4.0,82,0.00,,,0.01,,2013-01-25 17:22:00,
2013-01-25 12:33:00,33.0,29.0,30.16,South,178,0.0,6.0,84,0.00,,,0.01,,2013-01-25 17:33:00,
2013-01-25 12:43:00,33.0,29.0,30.16,South,178,0.0,6.0,84,0.00,,,0.01,,2013-01-25 17:43:00,
2013-01-25 12:53:00,33.0,28.0,30.17,WNW,282,3.0,10.0,83,0.00,,,0.01,,2013-01-25 17:53:00,
2013-01-25 13:03:00,32.0,28.0,30.19,WSW,238,2.0,7.0,86,0.00,,,0.01,,2013-01-25 18:03:00,
2013-01-25 13:12:00,32.0,28.0,30.19,WSW,238,2.0,7.0,86,0.00,,,0.01,,2013-01-25 18:12:00,
2013-01-25 13:23:00,32.0,29.0,30.16,WSW,237,1.0,5.0,89,0.00,,,0.01,,2013-01-25 18:23:00,
2013-01-25 13:33:00,32.0,29.0,30.14,WSW,237,0.0,0.0,89,0.00,,,0.01,,2013-01-25 18:33:00,
2013-01-25 13:42:00,32.0,29.0,30.14,WSW,237,0.0,0.0,89,0.00,,,0.01,,2013-01-25 18:42:00,
2013-01-25 13:52:00,32.0,29.0,30.14,WSW,237,0.0,0.0,89,0.00,,,0.01,,2013-01-25 18:52:00,
2013-01-25 14:03:00,32.0,29.0,30.13,WSW,237,0.0,0.0,90,0.00,,,0.01,,2013-01-25 19:03:00,
2013-01-25 14:12:00,32.0,29.0,30.13,WSW,237,0.0,0.0,90,0.00,,,0.01,,2013-01-25 19:12:00,
2013-01-25 14:22:00,32.0,29.0,30.13,WSW,237,0.0,0.0,90,0.00,,,0.01,,2013-01-25 19:22:00,
2013-01-25 14:32:00,32.0,30.0,30.13,WSW,237,0.0,0.0,91,0.00,,,0.01,,2013-01-25 19:32:00,
2013-01-25 14:42:00,32.0,30.0,30.13,WSW,237,0.0,0.0,91,0.00,,,0.01,,2013-01-25 19:42:00,
2013-01-25 14:53:00,32.0,30.0,30.12,WSW,237,0.0,0.0,92,0.00,,,0.01,,2013-01-25 19:53:00,
2013-01-25 15:03:00,32.0,30.0,30.11,WSW,237,0.0,0.0,92,0.00,,,0.01,,2013-01-25 20:03:00,
2013-01-25 15:12:00,32.0,30.0,30.11,WSW,237,0.0,0.0,92,0.00,,,0.01,,2013-01-25 20:12:00,
2013-01-25 15:23:00,33.0,31.0,30.12,WSW,237,0.0,0.0,92,0.00,,,0.01,,2013-01-25 20:23:00,
2013-01-25 15:32:00,33.0,31.0,30.11,WSW,237,0.0,0.0,92,0.00,,,0.01,,2013-01-25 20:32:00,
2013-01-25 15:42:00,33.0,31.0,30.11,WSW,237,0.0,0.0,92,0.00,,,0.01,,2013-01-25 20:42:00,
2013-01-25 15:53:00,33.0,31.0,30.11,WSW,237,0.0,0.0,92,0.00,,,0.01,,2013-01-25 20:53:00,
2013-01-25 16:02:00,33.0,31.0,30.10,WSW,237,0.0,0.0,93,0.00,,,0.01,,2013-01-25 21:02:00,
2013-01-25 16:12:00,33.0,31.0,30.10,WSW,237,0.0,0.0,93,0.00,,,0.01,,2013-01-25 21:12:00,
2013-01-25 16:23:00,33.0,31.0,30.11,WSW,237,0.0,0.0,93,0.00,,,0.01,,2013-01-25 21:23:00,
2013-01-25 16:33:00,33.0,31.0,30.11,WSW,237,0.0,0.0,93,0.01,,,0.02,,2013-01-25 21:33:00,
2013-01-25 16:42:00,33.0,31.0,30.11,WSW,237,0.0,0.0,93,0.01,,,0.02,,2013-01-25 21:42:00,
2013-01-25 16:52:00,33.0,31.0,30.11,WSW,237,0.0,0.0,93,0.01,,,0.02,,2013-01-25 21:52:00,
2013-01-25 17:03:00,33.0,31.0,30.11,WSW,237,0.0,0.0,94,0.01,,,0.02,,2013-01-25 22:03:00,
2013-01-25 17:12:00,33.0,31.0,30.11,WSW,237,0.0,0.0,94,0.01,,,0.02,,2013-01-25 22:12:00,
2013-01-25 17:22:00,33.0,31.0,30.11,WSW,237,0.0,0.0,94,0.01,,,0.02,,2013-01-25 22:22:00,
2013-01-25 17:33:00,33.0,31.0,30.11,WSW,237,0.0,0.0,94,0.01,,,0.02,,2013-01-25 22:33:00,
2013-01-25 17:42:00,33.0,31.0,30.11,WSW,237,0.0,0.0,94,0.01,,,0.02,,2013-01-25 22:42:00,
2013-01-25 18:53:00,34.0,33.0,30.13,WSW,248,0.0,0.0,95,0.00,,,0.02,,2013-01-25 23:53:00,
2013-01-25 19:02:00,34.0,33.0,30.13,WSW,248,0.0,0.0,95,0.00,,,0.02,,2013-01-26 00:02:00,
2013-01-25 19:12:00,34.0,33.0,30.13,WSW,248,0.0,0.0,95,0.00,,,0.02,,2013-01-26 00:12:00,
2013-01-25 19:22:00,34.0,33.0,30.14,WSW,248,0.0,0.0,95,0.00,,,0.02,,2013-01-26 00:22:00,
2013-01-25 19:32:00,34.0,33.0,30.14,WSW,248,0.0,0.0,95,0.00,,,0.02,,2013-01-26 00:32:00,
2013-01-25 19:42:00,34.0,33.0,30.14,WSW,248,0.0,0.0,95,0.00,,,0.02,,2013-01-26 00:42:00,
2013-01-25 19:53:00,34.0,33.0,30.14,WSW,248,0.0,0.0,95,0.00,,,0.02,,2013-01-26 00:53:00,
2013-01-25 20:02:00,34.0,33.0,30.15,WSW,248,0.0,0.0,95,0.00,,,0.02,,2013-01-26 01:02:00,
2013-01-25 20:11:00,34.0,33.0,30.15,WSW,248,0.0,0.0,95,0.00,,,0.02,,2013-01-26 01:11:00,
2013-01-25 20:22:00,34.0,33.0,30.15,WSW,248,0.0,0.0,95,0.01,,,0.03,,2013-01-26 01:22:00,
2013-01-25 20:32:00,34.0,33.0,30.15,WSW,248,0.0,0.0,95,0.01,,,0.03,,2013-01-26 01:32:00,
2013-01-25 20:42:00,34.0,33.0,30.15,WSW,248,0.0,0.0,95,0.01,,,0.03,,2013-01-26 01:42:00,
2013-01-25 20:52:00,34.0,33.0,30.15,WSW,248,0.0,0.0,95,0.01,,,0.03,,2013-01-26 01:52:00,
2013-01-25 21:01:00,35.0,34.0,30.14,WSW,248,0.0,1.0,96,0.01,,,0.03,,2013-01-26 02:01:00,
2013-01-25 21:11:00,35.0,34.0,30.14,WSW,248,0.0,1.0,96,0.01,,,0.03,,2013-01-26 02:11:00,
2013-01-25 21:22:00,35.0,34.0,30.14,WSW,248,0.0,1.0,96,0.00,,,0.03,,2013-01-26 02:22:00,
2013-01-25 21:32:00,35.0,34.0,30.16,WSW,248,0.0,0.0,96,0.00,,,0.03,,2013-01-26 02:32:00,
2013-01-25 21:42:00,35.0,34.0,30.16,WSW,248,0.0,0.0,96,0.00,,,0.03,,2013-01-26 02:42:00,
2013-01-25 21:52:00,35.0,34.0,30.16,WSW,248,0.0,0.0,96,0.00,,,0.03,,2013-01-26 02:52:00,
2013-01-25 22:02:00,35.0,34.0,30.16,WSW,248,0.0,0.0,96,0.00,,,0.03,,2013-01-26 03:02:00,
2013-01-25 22:11:00,35.0,34.0,30.16,WSW,248,0.0,0.0,96,0.00,,,0.03,,2013-01-26 03:11:00,
2013-01-25 22:22:00,35.0,34.0,30.16,WSW,248,0.0,0.0,96,0.00,,,0.03,,2013-01-26 03:22:00,
2013-01-25 22:32:00,35.0,34.0,30.17,WSW,248,0.0,0.0,96,0.00,,,0.03,,2013-01-26 03:32:00,
2013-01-25 22:43:00,35.0,34.0,30.17,WSW,248,0.0,0.0,96,0.00,,,0.03,,2013-01-26 03:43:00,
2013-01-25 22:52:00,35.0,34.0,30.16,WSW,248,0.0,0.0,97,0.00,,,0.03,,2013-01-26 03:52:00,
2013-01-25 23:02:00,35.0,34.0,30.16,WSW,248,0.0,0.0,97,0.00,,,0.03,,2013-01-26 04:02:00,
2013-01-25 23:12:00,35.0,34.0,30.16,WSW,248,0.0,0.0,97,0.00,,,0.03,,2013-01-26 04:12:00,
2013-01-25 23:21:00,35.0,34.0,30.17,WSW,248,0.0,0.0,97,0.00,,,0.03,,2013-01-26 04:21:00,
2013-01-25 23:32:00,35.0,34.0,30.17,WSW,248,0.0,0.0,97,0.00,,,0.03,,2013-01-26 04:32:00,
2013-01-25 23:42:00,35.0,34.0,30.17,WSW,248,0.0,0.0,97,0.00,,,0.03,,2013-01-26 04:42:00,
2013-01-25 23:52:00,35.0,34.0,30.16,WSW,248,0.0,0.0,97,0.00,,,0.03,,2013-01-26 04:52:00,